Location: Hlohovi?ky
(49.8934°N, 13.6739°E)
Time: 17:38:53
(UTC+00:00)

Cosmos 1766 Rocket - Pass Details

Date: 19 May 2025
Orbit: 598 x 627 km, 82.5° (Epoch: 16 June)

Event Time Altitude Azimuth Distance (km) Brightness Sun altitude
Rises 21:54:02 0° 344° (NNW) 2,908 8.7 -18.5°
Reaches altitude 10° 21:56:20 10° 339° (NNW) 1,992 7.4 -18.6°
Maximum altitude 22:00:32 44° 267° (W) 852 4.3 -18.8°
Enters shadow 22:02:14 29° 216° (SW) 1,123 4.5 -18.9°
